TimeCST,TemperatureF,Dew PointF,Humidity,Sea Level PressureIn,VisibilityMPH,Wind Direction,Wind SpeedMPH,Gust SpeedMPH,PrecipitationIn,Events,Conditions,WindDirDegrees,DateUTC
12:15 AM,14.0,12.2,93,29.60,3.0,North,15.0,-,N/A,Snow,Light Snow,10,2013-02-05 06:15:00
12:35 AM,12.2,10.4,92,29.62,4.0,North,18.4,-,N/A,Rain,Freezing Rain,360,2013-02-05 06:35:00
12:55 AM,10.4,10.4,100,29.63,7.0,North,18.4,-,N/A,Snow,Light Snow,10,2013-02-05 06:55:00
1:15 AM,10.4,8.6,92,29.65,10.0,North,17.3,-,N/A,Snow,Light Snow,360,2013-02-05 07:15:00
1:35 AM,10.4,8.6,92,29.66,10.0,North,16.1,-,N/A,Snow,Light Snow,360,2013-02-05 07:35:00
1:55 AM,8.6,6.8,92,29.67,10.0,North,15.0,-,N/A,Rain,Freezing Rain,360,2013-02-05 07:55:00
2:15 AM,8.6,6.8,92,29.68,10.0,North,16.1,-,N/A,Snow,Light Snow,10,2013-02-05 08:15:00
2:35 AM,8.6,6.8,92,29.69,9.0,NNE,19.6,-,N/A,Snow,Light Snow,20,2013-02-05 08:35:00
2:55 AM,6.8,5.0,92,29.72,10.0,North,17.3,-,0.01,Rain,Freezing Rain,360,2013-02-05 08:55:00
3:15 AM,6.8,3.2,85,29.73,10.0,North,11.5,-,N/A,Rain,Freezing Rain,10,2013-02-05 09:15:00
3:35 AM,5.0,1.4,85,29.74,10.0,North,13.8,-,N/A,Snow,Light Snow,360,2013-02-05 09:35:00
3:55 AM,5.0,1.4,85,29.75,10.0,North,15.0,-,N/A,,Overcast,360,2013-02-05 09:55:00
4:15 AM,5.0,1.4,85,29.77,10.0,North,16.1,-,N/A,,Overcast,360,2013-02-05 10:15:00
4:35 AM,3.2,1.4,92,29.79,8.0,North,17.3,-,N/A,Snow,Light Snow,360,2013-02-05 10:35:00
4:55 AM,3.2,-0.4,85,29.79,5.0,North,16.1,-,N/A,Rain,Freezing Rain,10,2013-02-05 10:55:00
5:15 AM,1.4,-0.4,92,29.80,6.0,North,15.0,-,N/A,,Overcast,360,2013-02-05 11:15:00
5:35 AM,1.4,-0.4,92,29.82,5.0,North,15.0,-,N/A,Snow,Light Snow,360,2013-02-05 11:35:00
5:55 AM,1.4,-0.4,92,29.83,10.0,NNW,13.8,-,N/A,Snow,Light Snow,340,2013-02-05 11:55:00
6:15 AM,1.4,-0.4,92,29.84,10.0,North,12.7,-,N/A,Snow,Light Snow,350,2013-02-05 12:15:00
6:35 AM,1.4,-0.4,92,29.85,10.0,North,16.1,-,N/A,,Overcast,360,2013-02-05 12:35:00
6:55 AM,1.4,-0.4,92,29.86,5.0,North,16.1,-,N/A,Rain,Freezing Rain,360,2013-02-05 12:55:00
7:15 AM,1.4,-0.4,92,29.87,10.0,North,12.7,-,N/A,Snow,Light Snow,10,2013-02-05 13:15:00
7:35 AM,1.4,-0.4,92,29.88,10.0,North,9.2,-,N/A,,Overcast,10,2013-02-05 13:35:00
7:55 AM,1.4,-0.4,92,29.88,10.0,North,6.9,-,N/A,,Overcast,350,2013-02-05 13:55:00
8:15 AM,1.4,-0.4,92,29.89,10.0,NNW,5.8,-,N/A,,Overcast,330,2013-02-05 14:15:00
8:35 AM,1.4,-0.4,92,29.91,10.0,NNW,6.9,-,N/A,,Overcast,340,2013-02-05 14:35:00
8:55 AM,1.4,-0.4,92,29.91,10.0,North,6.9,-,N/A,,Overcast,360,2013-02-05 14:55:00
9:15 AM,1.4,-0.4,92,29.93,10.0,North,9.2,-,N/A,,Overcast,10,2013-02-05 15:15:00
9:35 AM,1.4,-0.4,92,29.95,10.0,North,12.7,-,N/A,Snow,Light Snow,360,2013-02-05 15:35:00
9:55 AM,1.4,-0.4,92,29.95,10.0,North,11.5,-,N/A,Snow,Light Snow,10,2013-02-05 15:55:00
10:15 AM,1.4,-0.4,92,29.95,10.0,North,8.1,-,N/A,Snow,Light Snow,10,2013-02-05 16:15:00
10:35 AM,1.4,-0.4,92,29.96,10.0,North,9.2,-,0.01,Snow,Light Snow,350,2013-02-05 16:35:00
10:55 AM,1.4,-0.4,92,29.95,10.0,North,3.5,-,0.01,Snow,Light Snow,10,2013-02-05 16:55:00
11:15 AM,1.4,-0.4,92,29.96,10.0,Calm,Calm,-,N/A,Snow,Light Snow,0,2013-02-05 17:15:00
11:35 AM,3.2,-0.4,85,29.97,9.0,NNE,4.6,-,N/A,Snow,Light Snow,20,2013-02-05 17:35:00
11:55 AM,3.2,1.4,92,29.96,9.0,Calm,Calm,-,0.02,Snow,Light Snow,0,2013-02-05 17:55:00
12:15 PM,3.2,-0.4,85,29.95,10.0,Calm,Calm,-,N/A,Snow,Light Snow,0,2013-02-05 18:15:00
12:35 PM,3.2,-0.4,85,29.95,10.0,Calm,Calm,-,N/A,,Overcast,0,2013-02-05 18:35:00
12:55 PM,5.0,-0.4,78,29.95,10.0,South,3.5,-,N/A,,Overcast,190,2013-02-05 18:55:00
1:15 PM,5.0,1.4,85,29.94,10.0,SE,6.9,-,N/A,Snow,Light Snow,140,2013-02-05 19:15:00
1:35 PM,5.0,1.4,85,29.94,10.0,South,8.1,-,N/A,,Overcast,180,2013-02-05 19:35:00
1:55 PM,5.0,1.4,85,29.94,10.0,SSW,5.8,-,N/A,,Overcast,210,2013-02-05 19:55:00
2:15 PM,5.0,1.4,85,29.93,10.0,SSW,11.5,-,N/A,,Overcast,200,2013-02-05 20:15:00
2:35 PM,5.0,1.4,85,29.93,10.0,SSW,12.7,-,N/A,,Overcast,210,2013-02-05 20:35:00
2:55 PM,6.8,1.4,79,29.93,10.0,SSW,11.5,-,N/A,,Overcast,200,2013-02-05 20:55:00
3:15 PM,6.8,3.2,85,29.93,10.0,SSW,11.5,-,N/A,,Overcast,210,2013-02-05 21:15:00
3:35 PM,6.8,3.2,85,29.92,10.0,SSW,11.5,-,N/A,,Overcast,200,2013-02-05 21:35:00
3:55 PM,6.8,1.4,79,29.92,10.0,SSW,11.5,-,N/A,,Overcast,200,2013-02-05 21:55:00
4:15 PM,6.8,3.2,85,29.93,10.0,SSW,12.7,-,N/A,,Overcast,210,2013-02-05 22:15:00
4:35 PM,6.8,3.2,85,29.93,10.0,SSW,11.5,-,N/A,,Overcast,200,2013-02-05 22:35:00
4:55 PM,6.8,3.2,85,29.91,10.0,SSW,12.7,-,N/A,,Overcast,210,2013-02-05 22:55:00
5:15 PM,6.8,5.0,92,29.91,10.0,SSW,13.8,-,N/A,,Overcast,210,2013-02-05 23:15:00
5:35 PM,6.8,5.0,92,29.91,10.0,SW,16.1,-,N/A,,Overcast,220,2013-02-05 23:35:00
5:55 PM,6.8,5.0,92,29.91,10.0,SW,12.7,-,N/A,,Overcast,220,2013-02-05 23:55:00
6:15 PM,6.8,5.0,92,29.90,10.0,SSW,12.7,-,N/A,,Overcast,210,2013-02-06 00:15:00
6:35 PM,6.8,5.0,92,29.90,10.0,SSW,15.0,-,N/A,,Overcast,200,2013-02-06 00:35:00
6:55 PM,6.8,5.0,92,29.90,10.0,SW,10.4,-,N/A,,Overcast,220,2013-02-06 00:55:00
7:15 PM,6.8,6.8,100,29.90,10.0,SW,10.4,-,N/A,,Overcast,220,2013-02-06 01:15:00
7:35 PM,8.6,6.8,92,29.89,10.0,SSW,9.2,-,N/A,,Overcast,210,2013-02-06 01:35:00
7:55 PM,8.6,6.8,92,29.90,10.0,SSW,6.9,-,N/A,,Overcast,210,2013-02-06 01:55:00
8:15 PM,8.6,6.8,92,29.89,10.0,SSW,6.9,-,N/A,,Overcast,210,2013-02-06 02:15:00
8:35 PM,8.6,6.8,92,29.89,10.0,SW,11.5,-,N/A,,Overcast,230,2013-02-06 02:35:00
9:15 PM,8.6,6.8,92,29.88,10.0,SSW,8.1,-,N/A,,Overcast,200,2013-02-06 03:15:00
9:35 PM,10.4,8.6,92,29.89,10.0,SW,10.4,-,N/A,,Overcast,220,2013-02-06 03:35:00
9:55 PM,8.6,6.8,92,29.88,10.0,SSW,9.2,-,N/A,,Mostly Cloudy,200,2013-02-06 03:55:00
10:15 PM,8.6,6.8,92,29.88,10.0,South,9.2,-,N/A,,Mostly Cloudy,190,2013-02-06 04:15:00
10:35 PM,6.8,5.0,92,29.87,10.0,South,8.1,-,N/A,,Mostly Cloudy,180,2013-02-06 04:35:00
10:55 PM,6.8,6.8,100,29.85,10.0,SW,11.5,-,N/A,,Partly Cloudy,230,2013-02-06 04:55:00
11:15 PM,8.6,6.8,92,29.86,10.0,SSW,5.8,-,N/A,,Partly Cloudy,200,2013-02-06 05:15:00
11:35 PM,8.6,6.8,92,29.85,10.0,WSW,12.7,-,N/A,,Scattered Clouds,240,2013-02-06 05:35:00
11:55 PM,10.4,8.6,92,29.86,10.0,WSW,12.7,-,N/A,,Overcast,240,2013-02-06 05:55:00